sat.trackr.live / text

‹ back to catalog

STARLINK-34498

NORAD 64421 · 2025-129K

PAYLOAD ACTIVE UNKNOWN

§ Identity

Operator
Country
US
Launch date
2025-06-17
Launch site
AFWTR
Launch vehicle
Mass (kg)
RCS (m²)

Purposes: comms

External: N2YO · Heavens-Above · Gunter

§ Orbital elements

Epoch: 2026-05-24T23:31:56.687808Z

Period
96.11 min
Inclination
69.9995°
Eccentricity
0.0003920
Mean motion
14.98322839 rev/d
Perigee alt
569.4 km
Apogee alt
574.8 km
Semi-major
6,950.2 km
B*
1.6940e-5
RAAN
242.1507°
Arg perigee
267.6090°
Mean anomaly
92.4620°
Rev number
5,271

§ Raw data

STARLINK-344981 64421U 25129K   26144.98051722  .00000109  00000+0  16940-4 0  99902 64421  69.9995 242.1507 0003920 267.6090  92.4620 14.98322839 52718

JSON: /api/v1/satellites/64421 · /tle

For live sub-satellite position, see the globe view (requires WebGL).

§ Visibility from observer

Set your observer location to see the next 7 days of passes ≥ 10°. The values pass through the URL so the page stays shareable.

No JS? Fill the form by hand. The geolocation button needs JavaScript.